Location: Bergnershof
(48.9468°N, 10.9431°E)
Time: 00:04:20
(UTC+00:00)

Cosmos 1844 Rocket - Pass Details

Date: 23 June 2021
Orbit: 823 x 846 km, 71.0° (Epoch: 30 July)

Event Time Altitude Azimuth Distance (km) Brightness Sun altitude
Rises 20:17:43 0° 325° (NW) 3,415 8.3 -7.2°
Reaches altitude 10° 20:20:22 10° 317° (NW) 2,477 6.9 -7.5°
Maximum altitude 20:25:24 34° 254° (WSW) 1,376 4.1 -8.0°
Drops below altitude 10° 20:30:25 10° 192° (SSW) 2,462 4.8 -8.5°
Enters shadow 20:32:40 - 184° (S) 3,253 5.3 -8.7°
